Location: Nashville
(36.1660°N, 86.7840°W)
Time: 13:34:08
(UTC-05:00)

QB50P2 - Visible Passes

Search period start: 16 May 2022 00:00
Search period end: 26 May 2022 00:00
Orbit: 590 x 607 km, 97.9° (Epoch: 15 May)

Date Brightness Start Highest point End Pass type
(mag) Time Alt. Az. Time Alt. Az. Time Alt. Az.
16 May ? 01:30:03 10° NE 01:31:23 18° NE 01:31:23 18° NE visible
16 May ? 03:06:21 10° NNW 03:08:06 16° NW 03:08:06 16° NW visible
17 May ? 01:40:30 10° NNE 01:42:12 22° NE 01:42:12 22° NE visible
17 May ? 03:17:36 10° NW 03:18:56 13° NW 03:18:56 13° NW visible
18 May ? 01:51:02 10° NNE 01:53:02 27° NNE 01:53:02 27° NNE visible
18 May ? 03:29:31 10° NW 03:29:45 10° WNW 03:29:45 10° WNW visible
19 May ? 02:01:36 10° NNE 02:03:51 31° NNE 02:03:51 31° NNE visible
20 May ? 02:12:14 10° N 02:14:39 34° N 02:14:39 34° N visible
21 May ? 02:22:55 10° N 02:25:27 34° NNW 02:25:27 34° NNW visible
22 May ? 02:33:40 10° N 02:36:15 31° NNW 02:36:15 31° NNW visible
23 May ? 01:09:38 10° NE 01:10:19 13° ENE 01:10:19 13° ENE visible
23 May ? 02:44:28 10° N 02:47:02 27° NW 02:47:02 27° NW visible
24 May ? 01:19:47 10° NE 01:21:05 16° ENE 01:21:05 16° ENE visible
24 May ? 02:55:21 10° NNW 02:57:48 22° NW 02:57:48 22° NW visible
25 May ? 01:30:04 10° NE 01:31:51 21° NE 01:31:51 21° NE visible
25 May ? 03:06:20 10° NNW 03:08:34 18° NW 03:08:34 18° NW visible
